Starlink 5551

operational
NORAD ID: 56359 Int'l Des: 2023-058 Owner: SPXS Country: US Constellation: starlink
LEOCIRCULARRETROGRADESSO

关于 Starlink 5551

正在加载描述...

实时位置

正在加载3D地球...

即将过境

高度历史

Altitude vs Time

uPlot chart will show altitude changes over time

两行轨道根数

1 56359U 23058AU 25350.23593869 .00000140 00000-0 15430-4 0 9998
2 56359 97.6039 348.5577 0001957 168.7531 191.3738 15.01266746145613
Epoch: Dec 16, 2025 • Age: 18 hours

当前状态

高度 575.3 km
速度 7.58 km/s
星下点 70.79°N, 112.65°W
发射日期 Apr 27, 2023
运行时间 2.6 years
类型 internet

技术详情

分类 Payload
质量 300.00 kg
干质量 260.00 kg
总质量 300.00 kg
长度 0.20 m
直径 2.80 m
跨度 9.00 m
形状 Box + pan
制造商 SPXS
平台类型 Starlink
阶段状态 In Orbit
所有者/国家 SPXS/US

大型星座

Loading constellations...